Tracking 19638 objects as of 21-Apr-2019
HD Live streaming from Space Station
objects crossing your sky now

THORAD AGENA D DEB

Track THORAD AGENA D DEB now!
10-day predictions


NORAD ID: 4614
Int'l Code: 1970-025S
Perigee: 881.4 km
Apogee: 1,004.1 km
Inclination: 100.1 °
Period: 103.7 minutes
Semi major axis: 7313 km
RCS: 0.621 m2 (medium)
Launch date: April 8, 1970
Source: United States (US)
Launch site: AIR FORCE WESTERN TEST RANGE (AFWTR)

Note: This is SATELLITE DEBRIS
aabbcc
Your satellite tracking list
Your tracking list is empty




NASA's NSSDC Master Catalog

Two Line Element Set (TLE):
1  4614U 70025S   19110.94376134 -.00000230 +00000-0 -14629-3 0  9990
2  4614 100.0694 241.8918 0083883 118.0711 242.8956 13.88019856463490
Source of the keplerian elements: AFSPC